Date String (YYYY-MM-DD hh:mm:ss) UTC,Instrument flags,Ambient pressure (hPa),Sample flow (lpm),Bypass flow (lpm),Sample temperature (°C),Ambient temperature (°C),ASC tube jacket temperature (°C),LED temperature (°C),Box temperature (°C),Sample RH (%),Span deviation,Mass concentration (μg/m³),Mass concentration (μg/m³),Mass concentration (μg/m³)
DateTimeUTC,F1_M11,P_M11,Q1_M11,Q2_M11,T1_M11,T2_M11,T3_M11,T4_M11,T5_M11,U1_M11,ZSPAN_M11,X0_M11,X2_M11,X1_M11
2022-10-21 05:00:00,,0822.8,5.00,0.00,30.2,28.6,00.0,39.1,32.0,07.3,0000.0,0003.79,0001.49,0001.02
2022-10-21 05:01:00,,0822.8,4.99,0.00,30.2,28.6,00.0,39.1,32.0,07.2,0000.0,0004.17,0001.49,0001.02
2022-10-21 05:02:00,,0822.7,5.00,0.00,30.1,28.6,00.0,39.0,31.9,07.3,0000.0,0004.29,0001.54,0001.02
2022-10-21 05:03:00,,0822.7,5.00,0.00,30.1,28.6,00.0,39.0,31.9,07.1,0000.0,0004.36,0001.55,0001.02
2022-10-21 05:04:00,,0822.7,5.01,0.00,30.1,28.6,00.0,39.0,31.9,07.1,0000.0,0004.48,0001.58,0001.01
2022-10-21 05:05:00,,0822.7,4.99,0.00,30.1,28.5,00.0,39.0,31.9,07.2,0000.0,0004.55,0001.61,0001.02
2022-10-21 05:06:00,,0822.7,4.99,0.00,30.1,28.5,00.0,39.0,31.9,07.1,0000.0,0003.87,0001.56,0001.02
2022-10-21 05:07:00,,0822.7,5.00,0.00,30.1,28.5,00.0,39.0,31.8,07.1,0000.0,0003.58,0001.53,0001.01
2022-10-21 05:08:00,,0822.7,5.00,0.00,30.0,28.5,00.0,39.0,31.8,07.1,0000.0,0003.62,0001.51,0001.02
2022-10-21 05:09:00,,0822.7,5.00,0.00,30.1,28.5,00.0,39.0,31.9,07.1,0000.0,0003.56,0001.50,0001.02
2022-10-21 05:10:00,,0822.7,5.00,0.00,30.1,28.5,00.0,39.0,31.9,07.2,0000.0,0003.53,0001.48,0001.01
2022-10-21 05:11:00,,0822.7,5.00,0.00,30.0,28.5,00.0,39.0,31.8,07.2,0000.0,0003.10,0001.46,0001.00
2022-10-21 05:12:00,,0822.7,5.00,0.00,30.0,28.5,00.0,39.0,31.7,07.2,0000.0,0002.55,0001.44,0001.00
2022-10-21 05:13:00,,0822.7,5.00,0.00,30.0,28.4,00.0,38.9,31.7,07.2,0000.0,0002.37,0001.39,0001.01
2022-10-21 05:14:00,,0822.7,4.99,0.00,30.0,28.4,00.0,38.9,31.7,07.2,0000.0,0002.71,0001.38,0001.02
2022-10-21 05:15:00,,0822.7,5.01,0.00,30.0,28.4,00.0,38.9,31.7,07.2,0000.0,0002.84,0001.39,0001.02
2022-10-21 05:16:00,,0822.7,4.99,0.00,29.9,28.4,00.0,38.9,31.7,07.2,0000.0,0002.80,0001.38,0001.02
2022-10-21 05:17:00,,0822.7,5.01,0.00,29.9,28.3,00.0,38.9,31.7,07.2,0000.0,0002.82,0001.40,0001.03
2022-10-21 05:18:00,,0822.7,5.01,0.00,29.9,28.3,00.0,38.9,31.7,07.2,0000.0,0002.96,0001.43,0001.03
2022-10-21 05:19:00,,0822.7,5.00,0.00,29.9,28.3,00.0,38.9,31.7,07.1,0000.0,0003.21,0001.45,0001.02
2022-10-21 05:20:00,,0822.7,5.02,0.00,29.9,28.3,00.0,38.9,31.7,07.3,0000.0,0003.58,0001.54,0001.03
2022-10-21 05:21:00,,0822.7,5.00,0.00,29.9,28.4,00.0,38.9,31.7,07.4,0000.0,0003.72,0001.57,0001.03
2022-10-21 05:22:00,,0822.6,4.99,0.00,29.9,28.4,00.0,38.9,31.8,07.3,0000.0,0003.71,0001.60,0001.05
2022-10-21 05:23:00,,0822.6,5.00,0.00,29.9,28.5,00.0,38.9,31.8,07.3,0000.0,0003.77,0001.62,0001.05
2022-10-21 05:24:00,,0822.6,5.00,0.00,30.0,28.5,00.0,38.9,31.8,07.3,0000.0,0003.76,0001.63,0001.05
2022-10-21 05:25:00,,0822.7,5.01,0.00,30.0,28.6,00.0,38.9,31.8,07.3,0000.0,0003.25,0001.61,0001.06
2022-10-21 05:26:00,,0822.6,5.00,0.00,30.0,28.6,00.0,38.9,31.8,07.2,0000.0,0003.21,0001.61,0001.08
2022-10-21 05:27:00,,0822.6,4.99,0.00,30.0,28.6,00.0,38.9,31.8,07.3,0000.0,0003.32,0001.62,0001.09
2022-10-21 05:28:00,,0822.7,5.00,0.00,30.0,28.7,00.0,38.9,31.9,07.2,0000.0,0003.44,0001.61,0001.08
2022-10-21 05:29:00,,0822.6,5.01,0.00,30.0,28.7,00.0,38.9,31.9,07.2,0000.0,0003.57,0001.62,0001.09
2022-10-21 05:30:00,,0822.6,4.99,0.00,30.0,28.7,00.0,38.9,31.9,07.2,0000.0,0004.21,0001.64,0001.10
2022-10-21 05:31:00,,0822.6,5.00,0.00,30.0,28.7,00.0,38.9,31.9,07.2,0000.0,0004.25,0001.64,0001.11
2022-10-21 05:32:00,,0822.6,4.99,0.00,30.1,28.7,00.0,38.9,31.9,07.2,0000.0,0004.35,0001.64,0001.13
2022-10-21 05:33:00,,0822.6,5.01,0.00,30.1,28.7,00.0,38.9,31.9,07.2,0000.0,0006.11,0001.67,0001.13
2022-10-21 05:34:00,,0822.6,4.99,0.00,30.1,28.7,00.0,38.9,31.9,07.3,0000.0,0007.32,0001.66,0001.13
2022-10-21 05:35:00,,0822.6,4.99,0.00,30.1,28.7,00.0,38.9,31.9,07.2,0000.0,0007.47,0001.63,0001.12
2022-10-21 05:36:00,,0822.6,5.00,0.00,30.1,28.7,00.0,38.9,32.0,07.2,0000.0,0007.55,0001.67,0001.12
2022-10-21 05:37:00,,0822.6,4.99,0.00,30.1,28.7,00.0,38.9,31.9,07.2,0000.0,0007.52,0001.65,0001.11
2022-10-21 05:38:00,,0822.5,5.01,0.00,30.1,28.7,00.0,38.9,31.9,07.2,0000.0,0007.47,0001.64,0001.10
2022-10-21 05:39:00,,0822.6,4.99,0.00,30.1,28.7,00.0,39.0,31.9,07.2,0000.0,0007.42,0001.64,0001.11
2022-10-21 05:40:00,,0822.5,5.02,0.00,30.2,28.7,00.0,39.0,32.0,07.2,0000.0,0007.24,0001.60,0001.12
2022-10-21 05:41:00,,0822.6,4.99,0.00,30.2,28.7,00.0,39.0,32.0,07.2,0000.0,0006.63,0001.60,0001.13
2022-10-21 05:42:00,,0822.5,5.01,0.00,30.2,28.7,00.0,39.0,32.0,07.2,0000.0,0006.66,0001.57,0001.14
2022-10-21 05:43:00,,0822.5,4.99,0.00,30.2,28.7,00.0,39.0,32.0,07.1,0000.0,0006.48,0001.52,0001.12
2022-10-21 05:44:00,,0822.4,4.98,0.00,30.2,28.7,00.0,39.0,32.0,07.0,0000.0,0005.02,0001.51,0001.11
2022-10-21 05:45:00,,0822.4,5.01,0.00,30.2,28.7,00.0,39.0,32.0,07.1,0000.0,0003.48,0001.50,0001.11
2022-10-21 05:46:00,,0822.5,5.01,0.00,30.2,28.7,00.0,39.0,32.0,07.0,0000.0,0003.38,0001.49,0001.11
2022-10-21 05:47:00,,0822.4,4.99,0.00,30.2,28.7,00.0,39.0,32.0,07.1,0000.0,0004.16,0001.45,0001.11
2022-10-21 05:48:00,,0822.5,5.02,0.00,30.2,28.7,00.0,39.0,32.0,07.1,0000.0,0004.05,0001.42,0001.11
2022-10-21 05:49:00,,0822.4,4.99,0.00,30.2,28.7,00.0,39.0,32.0,07.1,0000.0,0004.29,0001.47,0001.12
2022-10-21 05:50:00,,0822.4,5.00,0.00,30.2,28.7,00.0,39.0,32.0,07.1,0000.0,0005.03,0001.48,0001.12
2022-10-21 05:51:00,,0822.4,4.99,0.00,30.2,28.7,00.0,39.0,32.0,07.1,0000.0,0005.99,0001.52,0001.11
2022-10-21 05:52:00,,0822.4,5.00,0.00,30.2,28.7,00.0,39.0,32.0,07.0,0000.0,0006.13,0001.53,0001.11
2022-10-21 05:53:00,,0822.4,5.01,0.00,30.2,28.7,00.0,39.0,32.0,07.1,0000.0,0005.68,0001.55,0001.08
2022-10-21 05:54:00,,0822.4,5.01,0.00,30.2,28.7,00.0,39.0,32.0,07.1,0000.0,0005.81,0001.60,0001.08
2022-10-21 05:55:00,,0822.4,5.00,0.00,30.2,28.7,00.0,39.0,32.0,07.1,0000.0,0005.87,0001.58,0001.07
2022-10-21 05:56:00,,0822.4,5.00,0.00,30.2,28.7,00.0,39.0,32.0,07.1,0000.0,0007.18,0001.58,0001.06
2022-10-21 05:57:00,,0822.4,5.00,0.00,30.2,28.7,00.0,39.1,32.0,07.1,0000.0,0007.80,0001.59,0001.06
2022-10-21 05:58:00,,0822.4,4.99,0.00,30.2,28.7,00.0,39.1,32.0,07.1,0000.0,0007.59,0001.68,0001.06
2022-10-21 05:59:00,,0822.4,5.01,0.00,30.2,28.7,00.0,39.1,32.0,07.1,0000.0,0007.86,0001.73,0001.06
